sat.trackr.live / text

‹ back to catalog

QIANFAN-190

NORAD 69408 · 2026-125H

PAYLOAD ACTIVE UNKNOWN

§ Identity

Operator
Country
PRC
Launch date
2026-06-05
Launch site
WSC
Launch vehicle
Mass (kg)
RCS (m²)

External: N2YO · Heavens-Above · Gunter

§ Orbital elements

Epoch: 2026-09-20T04:11:55.044096Z

Period
106.59 min
Inclination
88.9867°
Eccentricity
0.0001936
Mean motion
13.51019021 rev/d
Perigee alt
1,067.1 km
Apogee alt
1,070.0 km
Semi-major
7,446.6 km
B*
2.1270e-5
RAAN
270.3392°
Arg perigee
97.8880°
Mean anomaly
262.2491°
Rev number
1,477

§ Raw data

QIANFAN-1901 69408U 26125H   26263.17494264  .00000026  00000+0  21270-4 0  99922 69408  88.9867 270.3392 0001936  97.8880 262.2491 13.51019021 14778

JSON: /api/v1/satellites/69408 · /tle

For live sub-satellite position, see the globe view (requires WebGL).

§ Visibility from observer

Set your observer location to see the next 7 days of passes ≥ 10°. The values pass through the URL so the page stays shareable.

No JS? Fill the form by hand. The geolocation button needs JavaScript.